sat.trackr.live / text

‹ back to catalog

STARLINK-11286 [DTC]

NORAD 61050 · 2024-164A

PAYLOAD ACTIVE UNKNOWN

§ Identity

Operator
Country
US
Launch date
2024-09-13
Launch site
AFWTR
Launch vehicle
Mass (kg)
RCS (m²)

Purposes: comms

External: N2YO · Heavens-Above · Gunter

§ Orbital elements

Epoch: 2026-05-25T02:59:31.229664Z

Period
91.74 min
Inclination
53.1599°
Eccentricity
0.0001088
Mean motion
15.69712084 rev/d
Perigee alt
359.0 km
Apogee alt
360.5 km
Semi-major
6,737.9 km
B*
8.5137e-6
RAAN
294.4878°
Arg perigee
83.9695°
Mean anomaly
276.1446°
Rev number
9,742

§ Raw data

STARLINK-11286 [DTC]1 61050U 24164A   26145.12466701  .00000443  00000+0  85137-5 0  99932 61050  53.1599 294.4878 0001088  83.9695 276.1446 15.69712084 97420

JSON: /api/v1/satellites/61050 · /tle

For live sub-satellite position, see the globe view (requires WebGL).

§ Visibility from observer

Set your observer location to see the next 7 days of passes ≥ 10°. The values pass through the URL so the page stays shareable.

No JS? Fill the form by hand. The geolocation button needs JavaScript.